User: anonymous   Login
Location: Bowman Observatory
(41.0326°N, 73.6210°W)
Time: 15:21:48
(UTC-04:00)
Language:

Cosmos 2297 - Orbit

View from above orbital plane
View from above orbital plane
View from above satellite
View from above satellite

Ground track
Ground track

The orbit data is extracted from the following two-line orbital elements,

1 23404U 94077A   15185.51851416 -.00000111  00000-0 -33672-4 0  9991
2 23404 071.0126 346.8921 0015152 160.6026 255.8245 14.13440627 63226
Epoch (UTC): 04 July 2015 12:26:39
Eccentricity: 0.0015152
inclination: 71.0126°
perigee height: 836 km
apogee height: 858 km
right ascension of ascending node: 346.8921°
argument of perigee: 160.6026°
revolutions per day: 14.13440627
mean anomaly at epoch: 255.8245°
orbit number at epoch: 6322

The dashed part of the orbit path shows where the satellite is in the earth's shadow,  

DLR